Showing default

TANSAT, 41898

Orbit data source: Space-Track

TANSAT, 41898 is a Chinese payload satellite in SSO that was launched on Wed, 21 Dec 2016 UTC via a CHANG ZHENG 2D launch vehicle from the Jiuquan Satellite Launch Center, China (JSC). Payload-class satellites include a variety of spacecraft equipped with specific instruments for various scientific and technological missions. These include communications satellites like Starlink; space stations such as the ISS; scientific satellites like the Hubble; Earth observation satellites from companies like Planet Labs, Umbra, and HawkEye 360; GPS; miniature CubeSats for education and research; and military/defense satellites.

Loading next visibility...
Identifier
41898, 2016-081A
Orbit
SSO
Country
Flag of CNCN / PRC
Related business
Manufacturer
SECM
Mission
Operational Civil Earth Obs Sci
Bus & Motor
TANSAT, Unknown motor
Mass
~620 kg wet, ~600 kg dry
Launch date (UTC)
2016-12-21 (10 years ago)
Launch vehicle
CHANG ZHENG 2D
Launch site
Jiuquan Satellite Launch Center, China (JSC)
Object type
Payload
Rocket body
Debris
Shape & HBR
Box + 2 Pan, 5.0 m
Radar Cross Section
7.261 m², Large (>1 m²)

Expand to show TLE details & history
Last TLE update: 6 hours ago

TLE from 6 hours ago
0 TANSAT
1 41898U 16081A   26264.95036755  .00000018  00000-0  14309-4 0  9996
2 41898  98.5429 268.0980 0020927  13.7470 346.4295 14.60005751518741
Epoch: 2026-09-21T22:48Z
TLE epoch observation values (Epoch: 2026-09-21T22:48:31.756Z)
Latitude
0.00003°
Longitude
-74.85717°
Altitude
681.744 km
Speed
7.523 km/s
True Right ascension
17h 52m 23s
True Declination
0° 00' 00"
Sunlit
Object was in daylight at epoch
Visualization orbit readout
Latitude
Unknown
Longitude
Unknown
Altitude
Unknown
Speed
Unknown
Apparent Right ascension
Unknown
Apparent Declination
Unknown
Sunlit
N/A
Visualization observer readout
Local Sidereal Time
21:42:23
Azimuth
Unknown
Elevation
Unknown
Doppler factor
Unknown
Orbital elements
Apogee altitude
705.045 km
Perigee altitude
675.461 km
Semi-major axis
7,068.39 km
Eccentricity
0.00209
Inclination
98.5429°
RAAN
268.098°
Arg. of periapsis
13.747°
True anomaly
346.37309°
Mean anomaly
346.4295°
Eccentric anomaly
346.40131°
Mean motion
3.65227 °/min
Orbital period
98.57 mins
BSTAR
0.000014309
Loading maneuver chart data...
Computing Atmospheric mass density...
Loading historical data...
Loading historical data...
Loading historical data...
Loading historical data...
Loading historical data...
Loading historical data...
Loading historical data...
Other satellites on launch #81 in the year 2016 (2016-12-21 UTC)

Documentation

Showing up to 5 results
|